College Park, MD

6:35 AM EST on December 12, 2019 (GMT -0500)
College Park

Weather History for KCGS - October, 2019

Change the Weather History Date:

Tuesday, October 29, 2019

  Actual Average Record
Temperature  
Mean Temperature 58 °F -  
Max Temperature 64 °F 66 °F 85 °F (1984)
Min Temperature 52 °F 41 °F 25 °F (1965)
Degree Days  
Heating Degree Days 7    
Growing Degree Days 8 (Base 50)    
Moisture  
Dew Point 49 °F    
Average Humidity 71    
Maximum Humidity 94    
Minimum Humidity 56    
Precipitation  
Precipitation 0.00 in - - ()
Sea Level Pressure  
Sea Level Pressure 30.25 in    
Wind  
Wind Speed 1 mph (ESE)    
Max Wind Speed 5 mph    
Max Gust Speed -    
Visibility 10 miles    
Events      
Averages and records for this station are not official NWS values.
T = Trace of Precipitation, MM = Missing Value Source: NWS Daily Summary

Daily Weather History Graph

Daily Weather History Graph

Search for Another Location

Airport or City:

Astronomy

Oct. 29, 2019 Rise Set
Actual Time 7:31 AM EDT 6:10 PM EDT
Civil Twilight 7:03 AM EDT 6:38 PM EDT
Nautical Twilight 6:32 AM EDT 7:09 PM EDT
Astronomical Twilight 6:01 AM EDT 7:40 PM EDT
Moon 9:02 AM EDT (10/29) 7:34 PM EDT (10/29)
Length of Visible Light 11h 34m
Length of Day
10h 39m
Waxing Crescent, 3% of the Moon is Illuminated
Oct 29
Waxing Crescent
Nov 4
First Quarter
Nov 12
Full
Nov 19
Last Quarter
Nov 26
New

Hourly Weather History & Observations

Time (EDT) Temp. Dew Point Humidity Pressure Visibility Wind Dir Wind Speed Gust Speed Precip Events Conditions
12:03 AM 58.1 °F 50.5 °F 76% 30.23 in 10.0 mi East 3.5 mph - N/A   Overcast
12:23 AM 58.1 °F 50.7 °F 76% 30.23 in 10.0 mi Calm Calm - N/A   Overcast
12:43 AM 58.1 °F 50.5 °F 76% 30.24 in 10.0 mi East 3.5 mph - N/A   Overcast
1:03 AM 58.1 °F 50.5 °F 76% 30.24 in 10.0 mi East 3.5 mph - N/A   Overcast
1:23 AM 58.1 °F 50.4 °F 75% 30.24 in 10.0 mi Calm Calm - N/A   Overcast
1:43 AM 58.1 °F 50.4 °F 75% 30.24 in 10.0 mi Calm Calm - N/A   Overcast
2:03 AM 58.1 °F 50.4 °F 75% 30.25 in 10.0 mi Calm Calm - N/A   Overcast
2:23 AM 58.1 °F 50.2 °F 75% 30.25 in 10.0 mi Calm Calm - N/A   Overcast
2:43 AM 57.7 °F 50.4 °F 76% 30.25 in 10.0 mi Calm Calm - N/A   Overcast
3:23 AM 56.5 °F 49.6 °F 78% 30.25 in 10.0 mi Calm Calm - N/A   Overcast
3:43 AM 55.6 °F 49.1 °F 79% 30.25 in 10.0 mi Calm Calm - N/A   Mostly Cloudy
4:03 AM 54.9 °F 49.1 °F 81% 30.24 in 10.0 mi Calm Calm - N/A   Scattered Clouds
4:43 AM 52.7 °F 49.8 °F 90% 30.24 in 10.0 mi Calm Calm - N/A   Scattered Clouds
5:03 AM 53.4 °F 51.6 °F 94% 30.24 in 10.0 mi East 3.5 mph - N/A   Overcast
5:23 AM 54.9 °F 53.1 °F 94% 30.24 in 10.0 mi Calm Calm - N/A   Overcast
5:43 AM 55.4 °F 50.4 °F 83% 30.24 in 10.0 mi East 3.5 mph - N/A   Overcast
6:03 AM 54.9 °F 48.2 °F 78% 30.24 in 10.0 mi Calm Calm - N/A   Overcast
6:23 AM 54.7 °F 48.2 °F 79% 30.25 in 10.0 mi ENE 3.5 mph - N/A   Overcast
6:43 AM 55.0 °F 47.8 °F 77% 30.24 in 10.0 mi East 3.5 mph - N/A   Overcast
7:03 AM 55.2 °F 47.8 °F 76% 30.24 in 10.0 mi East 3.5 mph - N/A   Overcast
7:43 AM 54.9 °F 48.2 °F 78% 30.25 in 10.0 mi Calm Calm - N/A   Overcast
8:03 AM 55.4 °F 48.4 °F 77% 30.25 in 10.0 mi Calm Calm - N/A   Overcast
8:23 AM 55.8 °F 48.9 °F 78% 30.26 in 10.0 mi Calm Calm - N/A   Overcast
8:43 AM 56.5 °F 49.1 °F 76% 30.27 in 10.0 mi Calm Calm - N/A   Overcast
9:03 AM 57.2 °F 49.3 °F 75% 30.28 in 10.0 mi Calm Calm - N/A   Overcast
9:23 AM 57.2 °F 49.5 °F 75% 30.28 in 10.0 mi Calm Calm - N/A   Overcast
9:43 AM 57.4 °F 49.6 °F 75% 30.28 in 10.0 mi North 3.5 mph - N/A   Overcast
10:03 AM 57.6 °F 49.6 °F 75% 30.28 in 10.0 mi Calm Calm - N/A   Overcast
10:23 AM 58.6 °F 50.2 °F 73% 30.28 in 10.0 mi Calm Calm - N/A   Overcast
10:43 AM 59.5 °F 50.2 °F 71% 30.28 in 10.0 mi Calm Calm - N/A   Overcast
11:03 AM 60.6 °F 49.6 °F 67% 30.28 in 10.0 mi Calm Calm - N/A   Overcast
11:23 AM 61.0 °F 49.1 °F 65% 30.28 in 10.0 mi Calm Calm - N/A   Overcast
11:43 AM 62.1 °F 48.7 °F 62% 30.28 in 10.0 mi SSE 4.6 mph - N/A   Overcast
12:03 PM 62.4 °F 46.9 °F 57% 30.28 in 10.0 mi SSE 3.5 mph - N/A   Overcast
12:23 PM 62.6 °F 47.3 °F 57% 30.28 in 10.0 mi East 4.6 mph - N/A   Overcast
12:43 PM 63.3 °F 47.7 °F 57% 30.26 in 10.0 mi Calm Calm - N/A   Overcast
1:03 PM 63.3 °F 47.5 °F 56% 30.26 in 10.0 mi SSE 3.5 mph - N/A   Overcast
1:23 PM 63.5 °F 47.5 °F 56% 30.25 in 10.0 mi Calm Calm - N/A   Overcast
1:43 PM 63.7 °F 47.8 °F 56% 30.25 in 10.0 mi SE 4.6 mph - N/A   Overcast
2:03 PM 64.0 °F 48.4 °F 57% 30.24 in 10.0 mi Calm Calm - N/A   Overcast
2:23 PM 64.2 °F 48.0 °F 56% 30.24 in 10.0 mi SSE 4.6 mph - N/A   Overcast
2:43 PM 64.2 °F 48.4 °F 56% 30.23 in 10.0 mi Calm Calm - N/A   Overcast
3:03 PM 64.8 °F 48.6 °F 56% 30.23 in 10.0 mi SSW 4.6 mph - N/A   Overcast
3:43 PM 64.6 °F 48.7 °F 56% 30.23 in 10.0 mi Calm Calm - N/A   Overcast
4:03 PM 64.6 °F 48.9 °F 57% 30.23 in 10.0 mi South 3.5 mph - N/A   Overcast
4:23 PM 64.6 °F 48.9 °F 57% 30.23 in 10.0 mi Calm Calm - N/A   Overcast
4:43 PM 64.6 °F 49.1 °F 57% 30.23 in 10.0 mi Calm Calm - N/A   Overcast
5:03 PM 64.4 °F 48.9 °F 57% 30.24 in 10.0 mi Calm Calm - N/A   Overcast
5:23 PM 64.4 °F 48.9 °F 57% 30.24 in 10.0 mi Calm Calm - N/A   Overcast
5:43 PM 64.2 °F 49.1 °F 58% 30.24 in 10.0 mi Calm Calm - N/A   Overcast
6:03 PM 62.8 °F 50.2 °F 63% 30.24 in 10.0 mi Calm Calm - N/A   Overcast
6:23 PM 62.6 °F 49.3 °F 62% 30.24 in 10.0 mi ESE 4.6 mph - N/A   Overcast
6:43 PM 61.7 °F 49.1 °F 63% 30.24 in 10.0 mi ESE 4.6 mph - N/A   Overcast
7:03 PM 61.2 °F 48.9 °F 64% 30.25 in 10.0 mi Calm Calm - N/A   Overcast
7:23 PM 61.0 °F 49.1 °F 65% 30.25 in 10.0 mi Calm Calm - N/A   Overcast
8:03 PM 60.3 °F 49.1 °F 67% 30.25 in 10.0 mi Calm Calm - N/A   Overcast
8:23 PM 59.0 °F 49.5 °F 71% 30.25 in 10.0 mi Calm Calm - N/A   Overcast
8:43 PM 58.6 °F 50.2 °F 73% 30.25 in 10.0 mi Calm Calm - N/A   Overcast
9:23 PM 58.1 °F 50.0 °F 74% 30.26 in 10.0 mi Calm Calm - N/A   Overcast
9:43 PM 57.4 °F 50.0 °F 76% 30.26 in 10.0 mi Calm Calm - N/A   Overcast
10:03 PM 56.8 °F 50.2 °F 78% 30.26 in 10.0 mi Calm Calm - N/A   Overcast
10:23 PM 56.3 °F 49.6 °F 78% 30.26 in 10.0 mi Calm Calm - N/A   Mostly Cloudy
10:43 PM 55.0 °F 49.1 °F 80% 30.26 in 10.0 mi Calm Calm - N/A   Scattered Clouds
11:03 PM 54.5 °F 49.5 °F 83% 30.26 in 10.0 mi Calm Calm - N/A   Clear
11:23 PM 54.0 °F 50.2 °F 87% 30.26 in 10.0 mi Calm Calm - N/A   Clear
11:43 PM 53.8 °F 52.0 °F 94% 30.26 in 10.0 mi Calm Calm - N/A   Clear